Find FARRAH I

NORAD ID: 13172 Int'l Des: 1982-041 Owner: NRO/SAFSP Country: US operational
LEOCIRCULARRETROGRADE

实时位置

正在加载3D地球...

关于 FARRAH I

正在加载描述...

即将过境

Passes for default location (London). Set your location on the main map for personalized predictions.

高度历史

Loading altitude history...

两行轨道根数

1 13172U 82041C 26134.24376349 .00001885 00000-0 13178-3 0 9998
2 13172 96.0044 255.7233 0010934 55.1212 305.1045 15.06044165110551
Epoch: May 14, 2026 • Age: 10 hours

当前状态

高度 554.5 km
速度 7.58 km/s
星下点 6.71°N, 38.41°W
发射日期 May 11, 1982
运行时间 44 years
类型 other

技术详情

分类 Payload
质量 368.00 kg
干质量 368.00 kg
总质量 400.00 kg
长度 1.50 m
直径 0.40 m
跨度 1.50 m
形状 Box + Ant
制造商 LMSC/MOTO
平台类型 SSU D
阶段状态 In Orbit
所有者/国家 NRO/SAFSP/US

Most Searched